Home   Weather   Naha   Past weeks

Flag for Japan Past Weather in Naha, Okinawa, Japan — Yesterday and Last 2 Weeks

Now
82 °F

Lots of rain. Partly cloudy.


Feels Like: 91 °F
Forecast: 81 / 86 °F
Wind: 17 mph from Southeast

Location: Naha Airport

Current Time: Sep 28, 2016 at 5:47:22 AM

Latest Report: Sep 28, 2016 at 5:02 AM


Visibility: 2 mi

Pressure: 29.80 "Hg

Humidity: 84%

Dew Point: 77 °F

Location of NahaLocation

Past Weather in Naha — Graph

°F

Naha Temperature Yesterday

Maximum temperature yesterday: 88 °F (at 9:30 AM)
Minimum temperature yesterday: 79 °F (at 8:30 PM)
Average temperature yesterday: 84 °F

High & Low Weather Summary for the Past Weeks

 TemperatureHumidityPressure
High90 °F (Sep 13, 10:30 AM)94% (Sep 28, 12:00 AM)30.01 "Hg (Sep 28, 12:00 AM)
Low79 °F (Sep 22, 1:30 AM)55% (Sep 15, 1:30 PM)29.59 "Hg (Sep 19, 2:30 AM)
Average84 °F76%29.81 "Hg
* Reported Sep 13 4:00 AM — Sep 28 4:30 AM, Naha, Weather by CustomWeather, © 2016

Note: Actual official high and low records may vary slightly from our data, if they occured in-between our weather recording intervals... More about our weather records

Advertising

Naha Weather History for the Previous 24 Hours

Scroll right to see more
 ConditionsComfort  
Time TempWeatherWind HumidityBarometerVisibility
4:30 AM
Wed, Sep 28
81 °FRain showers. Partly cloudy.9 mph89%29.77 "HgN/A
4:00 AM81 °FRain showers. Partly cloudy.12 mph89%29.77 "HgN/A
3:30 AM82 °FScattered showers. Passing clouds.13 mph84%29.77 "HgN/A
3:00 AM82 °FPassing clouds.14 mph84%29.77 "HgN/A
2:30 AM82 °FScattered showers. Passing clouds.13 mph84%29.77 "HgN/A
2:00 AM82 °FPassing clouds.12 mph84%29.80 "HgN/A
1:30 AM82 °FPartly cloudy.12 mph89%29.80 "HgN/A
1:00 AM82 °FPartly cloudy.12 mph89%29.80 "HgN/A
12:30 AM82 °FScattered showers. Partly cloudy.12 mph89%29.80 "HgN/A
12:00 AM81 °FSprinkles. Passing clouds.10 mph94%29.80 "HgN/A
11:45 PM
Tue, Sep 27
81 °FLots of rain. Partly cloudy.17 mph89%29.83 "Hg4 mi
11:30 PM79 °FLots of rain. Partly cloudy.18 mph89%29.83 "Hg2 mi
11:00 PM82 °FRain showers. Partly cloudy.15 mph89%29.83 "HgN/A
10:30 PM81 °FScattered showers. Partly cloudy.12 mph89%29.80 "HgN/A
10:00 PM81 °FLight rain. Partly cloudy.12 mph89%29.80 "HgN/A
9:30 PM81 °FLight rain. Partly cloudy.12 mph89%29.80 "HgN/A
9:00 PM79 °FLight rain. Partly cloudy.12 mph89%29.83 "HgN/A
8:50 PM79 °FLight rain. Partly cloudy.12 mph89%29.80 "HgN/A
8:30 PM79 °FRain showers. Partly cloudy.14 mph89%29.83 "Hg5 mi
8:03 PM81 °FLots of rain. Partly cloudy.14 mph89%29.80 "Hg1 mi
8:00 PM81 °FLots of rain. Partly cloudy.14 mph89%29.80 "Hg1 mi
7:50 PM81 °FLots of rain. Partly cloudy.10 mph89%29.80 "Hg1 mi
7:30 PM81 °FRain showers. Partly cloudy.14 mph89%29.80 "Hg4 mi
7:00 PM82 °FLots of rain. Partly cloudy.12 mph84%29.77 "Hg6 mi
6:30 PM82 °FLots of rain. Partly cloudy.12 mph84%29.77 "HgN/A
6:03 PM82 °FLots of rain. Broken clouds.18 mph84%29.77 "Hg2 mi
6:00 PM84 °FLots of rain. Broken clouds.15 mph84%29.77 "Hg2 mi
5:30 PM84 °FLots of rain. Broken clouds.14 mph84%29.74 "Hg5 mi
5:00 PM84 °FScattered showers. Broken clouds.16 mph84%29.71 "HgN/A
4:30 PM86 °FScattered showers. Partly sunny.18 mph79%29.71 "HgN/A
4:00 PM88 °FBroken clouds.17 mph75%29.71 "HgN/A
3:30 PM88 °FSprinkles. Broken clouds.18 mph75%29.71 "HgN/A
3:00 PM88 °FRain showers. Broken clouds.17 mph75%29.71 "HgN/A
2:30 PM88 °FPartly sunny.18 mph75%29.71 "HgN/A
2:00 PM88 °FBroken clouds.17 mph75%29.71 "HgN/A
1:30 PM88 °FSprinkles. Broken clouds.20 mph75%29.71 "HgN/A
1:00 PM88 °FBroken clouds.18 mph75%29.71 "HgN/A
12:30 PM86 °FPartly sunny.18 mph75%29.71 "HgN/A
12:02 PM88 °FBroken clouds.23 mph70%29.71 "HgN/A
12:00 PM88 °FBroken clouds.22 mph70%29.71 "HgN/A
11:30 AM88 °FBroken clouds.18 mph70%29.71 "HgN/A
11:00 AM88 °FBroken clouds.20 mph70%29.71 "HgN/A
10:30 AM88 °FBroken clouds.23 mph75%29.71 "HgN/A
10:00 AM88 °FBroken clouds.22 mph75%29.71 "HgN/A
9:30 AM88 °FBroken clouds.21 mph70%29.68 "HgN/A
9:00 AM86 °FBroken clouds.18 mph79%29.71 "HgN/A
8:30 AM86 °FPartly sunny.20 mph75%29.71 "HgN/A
8:00 AM86 °FPartly sunny.20 mph79%29.68 "HgN/A
7:30 AM86 °FPartly sunny.18 mph75%29.68 "HgN/A
7:00 AM84 °FPartly sunny.20 mph79%29.65 "HgN/A
6:30 AM84 °FScattered clouds.18 mph79%29.65 "HgN/A
6:00 AM84 °FPassing clouds.17 mph79%29.65 "Hg5 mi
5:30 AM84 °FPassing clouds.21 mph79%29.65 "Hg5 mi
5:04 AM84 °FPassing clouds.20 mph79%29.62 "Hg5 mi
5:00 AM84 °FPassing clouds.18 mph79%29.62 "Hg5 mi
Weather by CustomWeather, © 2016

See weather overviewHow to use our weather pages